TimeHST,TemperatureF,Dew PointF,Humidity,Sea Level PressureIn,VisibilityMPH,Wind Direction,Wind SpeedMPH,Gust SpeedMPH,PrecipitationIn,Events,Conditions,WindDirDegrees,DateUTC
12:53 AM,66.9,64.9,93,30.11,10.0,SSW,4.6,-,N/A,,Mostly Cloudy,210,2011-12-16 10:53:00
1:53 AM,66.9,64.0,90,30.10,10.0,Calm,Calm,-,N/A,,Overcast,0,2011-12-16 11:53:00
2:53 AM,68.0,64.9,90,30.08,5.0,SSE,4.6,-,0.00,Rain,Light Rain,150,2011-12-16 12:53:00
3:53 AM,66.9,64.0,90,30.06,10.0,WSW,6.9,-,0.09,,Overcast,240,2011-12-16 13:53:00
4:53 AM,66.9,63.0,87,30.06,10.0,SW,4.6,-,N/A,,Overcast,230,2011-12-16 14:53:00
5:38 AM,66.2,62.6,88,30.07,10.0,Calm,Calm,-,N/A,,Overcast,0,2011-12-16 15:38:00
5:53 AM,66.0,62.1,87,30.07,10.0,WSW,4.6,-,N/A,,Mostly Cloudy,250,2011-12-16 15:53:00
6:00 AM,66.2,60.8,83,30.07,10.0,WSW,4.6,-,N/A,,Mostly Cloudy,240,2011-12-16 16:00:00
6:48 AM,66.2,62.6,88,30.09,10.0,Calm,Calm,-,N/A,,Overcast,0,2011-12-16 16:48:00
6:53 AM,66.9,62.1,84,30.09,10.0,SW,3.5,-,N/A,,Overcast,220,2011-12-16 16:53:00
7:30 AM,68.0,64.4,88,30.10,10.0,SW,4.6,-,N/A,,Overcast,230,2011-12-16 17:30:00
7:48 AM,68.0,64.4,88,30.11,10.0,WSW,3.5,-,N/A,,Mostly Cloudy,240,2011-12-16 17:48:00
7:53 AM,68.0,64.0,87,30.11,10.0,WSW,3.5,-,N/A,,Mostly Cloudy,250,2011-12-16 17:53:00
8:31 AM,69.8,64.4,83,30.13,10.0,SE,3.5,-,N/A,,Overcast,140,2011-12-16 18:31:00
8:42 AM,69.8,66.2,88,30.13,2.0,Calm,Calm,-,0.01,Rain,Rain,0,2011-12-16 18:42:00
8:48 AM,69.8,66.2,88,30.13,3.0,Calm,Calm,-,0.03,Rain,Rain,0,2011-12-16 18:48:00
8:53 AM,70.0,66.9,90,30.13,4.0,West,4.6,-,0.04,Rain,Light Rain,270,2011-12-16 18:53:00
9:33 AM,71.6,66.2,83,30.14,10.0,NW,8.1,-,0.01,,Overcast,310,2011-12-16 19:33:00
9:50 AM,71.6,68.0,88,30.13,10.0,WNW,8.1,-,0.01,Rain,Light Rain,300,2011-12-16 19:50:00
9:53 AM,72.0,68.0,87,30.13,10.0,WNW,6.9,-,0.01,Rain,Light Rain,290,2011-12-16 19:53:00
10:28 AM,73.4,66.2,78,30.12,5.0,WNW,5.8,-,0.00,Rain,Light Rain,290,2011-12-16 20:28:00
10:42 AM,73.4,68.0,83,30.12,10.0,NNW,5.8,-,0.00,,Overcast,330,2011-12-16 20:42:00
10:53 AM,73.9,66.9,79,30.12,10.0,NNW,8.1,-,0.00,Rain,Light Rain,330,2011-12-16 20:53:00
11:34 AM,75.2,68.0,78,30.10,10.0,NNW,5.8,-,0.00,,Overcast,330,2011-12-16 21:34:00
11:53 AM,75.0,66.9,76,30.09,10.0,NNW,5.8,-,0.00,,Overcast,340,2011-12-16 21:53:00
12:05 PM,75.2,66.2,73,30.09,10.0,NNW,5.8,-,N/A,,Overcast,340,2011-12-16 22:05:00
12:12 PM,75.2,66.2,73,30.09,10.0,North,5.8,-,N/A,,Overcast,360,2011-12-16 22:12:00
12:21 PM,75.2,68.0,78,30.08,10.0,North,6.9,-,N/A,,Overcast,350,2011-12-16 22:21:00
12:32 PM,75.2,66.2,73,30.08,10.0,North,9.2,-,N/A,,Overcast,10,2011-12-16 22:32:00
12:53 PM,72.0,68.0,87,30.07,4.0,North,6.9,-,0.00,Rain,Rain,10,2011-12-16 22:53:00
1:53 PM,73.9,66.9,79,30.04,10.0,NNW,5.8,-,0.01,,Overcast,340,2011-12-16 23:53:00
2:53 PM,73.9,66.9,79,30.04,10.0,NE,4.6,-,N/A,,Overcast,50,2011-12-17 00:53:00
3:53 PM,75.0,66.9,76,30.03,10.0,North,6.9,-,N/A,,Mostly Cloudy,10,2011-12-17 01:53:00
4:46 PM,75.2,66.2,73,30.04,10.0,NNE,9.2,-,N/A,,Overcast,20,2011-12-17 02:46:00
4:53 PM,73.9,64.9,73,30.04,10.0,NNE,5.8,-,N/A,,Overcast,30,2011-12-17 02:53:00
5:53 PM,72.0,64.9,78,30.05,10.0,NNW,6.9,-,N/A,,Scattered Clouds,330,2011-12-17 03:53:00
6:53 PM,70.0,64.0,81,30.07,10.0,WNW,4.6,-,N/A,,Mostly Cloudy,290,2011-12-17 04:53:00
7:01 PM,69.8,64.4,83,30.08,10.0,WNW,4.6,-,N/A,,Mostly Cloudy,290,2011-12-17 05:01:00
7:53 PM,69.1,63.0,81,30.09,10.0,West,5.8,-,N/A,,Clear,280,2011-12-17 05:53:00
8:53 PM,68.0,63.0,84,30.10,10.0,WSW,5.8,-,N/A,,Scattered Clouds,250,2011-12-17 06:53:00
9:53 PM,69.1,62.1,78,30.11,10.0,WSW,4.6,-,N/A,,Mostly Cloudy,250,2011-12-17 07:53:00
10:53 PM,66.0,61.0,84,30.10,10.0,WSW,4.6,-,N/A,,Scattered Clouds,240,2011-12-17 08:53:00
11:53 PM,66.0,60.1,81,30.09,10.0,WSW,6.9,-,N/A,,Scattered Clouds,240,2011-12-17 09:53:00